TIME,DELAY(SENSOR),PRES,T(CTD),SAL,OXYGEN,RAWTEMP,T(OPTODE),TCPHASE,FLUOR,BETA(BETA700),BETA(BETA412),BETA(BETA440),CDOM,C(CSC),ED(ED412.40),ED(ED444.00),ED(ED489.70),ED(ED554.30),LU(LU411.80),LU(LU443.40),LU(LU489.60),LU(LU554.10),COMP,TILTX,TILTX(TILTY),CHECK
1381959202,5808,497.0199890136719000,6.5581998825073240,34.1673011779785160,65.0272903442382800,601.3986206054688000,6.5390782356262210,50.7713203430175800,52,105,88,80,78,15251,2147749129,2147426989,2148004086,2147873819,2147630592,2147064932,2148250102,2147198592,1552,4,13,36484
1381959322,5810,486.5499877929687500,6.6690001487731930,34.1626014709472660,68.1981811523437500,598.1179199218750000,6.6450481414794920,50.3178405761718750,52,104,85,79,78,15253,2147742281,2147425106,2148006290,2147874404,2147627776,2147072310,2148248658,2147205522,1185,4,13,46907
1381959456,5809,475.6099853515625000,6.7300000190734860,34.1351013183593750,75.0989837646484400,595.8082275390625000,6.7195930480957030,49.4351387023925800,52,105,87,79,77,15252,2147745362,2147423040,2148006043,2147873581,2147628416,2147066020,2148239862,2147202907,393,4,12,20703
1381959598,5812,465.1799926757812500,6.8991999626159670,34.1208000183105500,83.5827484130859400,590.7869873046875000,6.8814787864685060,48.3565216064453100,51,105,85,79,76,15253,2147744292,2147422400,2148008960,2147875337,2147625993,2147069284,2148248265,2147204873,2001,3,13,53101
1381959759,5810,453.6000061035156000,7.3084998130798340,34.1049003601074200,100.9755020141601600,578.1563110351562000,7.2876658439636230,46.2504615783691400,51,104,87,78,76,15253,2147743478,2147423012,2148007040,2147873398,2147628708,2147075611,2148244562,2147200905,584,4,13,49221
1381959893,5809,442.1499938964844000,7.5816001892089840,34.0970993041992200,116.0627975463867200,569.3400878906250000,7.5703320503234860,44.5847396850585940,51,103,87,79,75,15255,2147744438,2147423835,2148006747,2147876297,2147624128,2147079579,2148246774,2147202203,3134,4,13,28528
1381960015,5810,431.5499877929687500,7.7364997863769530,34.1044998168945300,119.8114013671875000,564.7133789062500000,7.7184047698974610,44.1459503173828100,50,103,87,79,75,15252,2147741796,2147422793,2148007899,2147874331,2147621814,2147075236,2148237101,2147201984,2097,4,13,53128
1381960146,5808,420.1400146484375000,7.9586000442504880,34.1024017333984400,124.5817031860351600,557.6397705078125000,7.9444270133972170,43.5795211791992200,51,103,84,79,75,15252,2147742317,2147422016,2148008009,2147873307,2147618989,2147076672,2148236690,2147200850,1431,4,13,15251
1381960277,5806,409.3099975585937500,8.1064996719360350,34.0966987609863300,132.4044952392578000,552.9808959960938000,8.0930624008178710,42.7883796691894500,50,104,88,78,74,15249,2147740672,2147426066,2148004050,2147876461,2147622829,2147079680,2148236516,2147204809,348,3,13,44089
1381960411,5808,398.8299865722656000,8.3878002166748050,34.0993995666503900,141.7606048583984400,544.3101806640625000,8.3692054748535160,41.8254508972168000,50,104,86,79,73,15252,2147740754,2147426084,2148004452,2147876224,2147616804,2147083629,2148234980,2147200804,2123,4,13,14499
1381960553,5810,388.0000000000000000,8.7049999237060550,34.1026992797851560,149.7998962402343800,534.3120727539062000,8.6868705749511720,40.9852104187011700,50,104,86,79,73,15251,2147739145,2147425883,2148002532,2147875712,2147618523,2147085741,2148234496,2147200978,1107,4,13,6630
1381960714,5809,375.2300109863281000,9.0520000457763670,34.1072998046875000,158.9302978515625000,522.7346801757812000,9.0537376403808600,40.0605506896972660,50,103,86,79,72,15247,2147736813,2147425764,2148005421,2147873408,2147618916,2147087588,2148231067,2147205513,2515,3,13,15239
1381960836,5808,363.4800109863281000,9.5107002258300780,34.1178016662597660,166.1558990478515600,508.6756896972656000,9.4978866577148440,39.2697792053222660,50,104,84,80,72,15249,2147735780,2147425179,2148003355,2147876507,2147614628,2147091373,2148226267,2147204598,2091,3,13,32177
1381960947,5810,352.5199890136719000,9.9559001922607420,34.1235008239746100,168.6649932861328000,494.3492126464844000,9.9490232467651370,38.8403091430664060,49,105,86,79,71,15244,2147737398,2147428096,2148007579,2147875465,2147611117,2147089490,2148226605,2147206153,1246,3,13,44974
1381961067,5808,341.0799865722656000,10.2170000076293950,34.1321983337402340,176.6517028808593800,485.6771850585937500,10.2214202880859380,38.1192588806152340,49,105,87,79,70,15246,2147735926,2147425581,2148009755,2147872009,2147612626,2147096850,2148227894,2147204772,3183,4,13,42722
1381961176,5807,330.2600097656250000,10.8024997711181640,34.1376991271972660,181.9783020019531200,467.5823974609375000,10.7882204055786130,37.4483413696289060,49,102,84,80,69,15249,2147732077,2147425856,2148009627,2147873435,2147608100,2147100608,2148226368,2147206043,2265,3,13,16541
1381961298,5809,318.8200073242187500,11.1281003952026370,34.1557998657226560,190.4819946289062500,456.3854980468750000,11.1379299163818360,36.6977005004882800,49,106,84,79,69,15246,2147732068,2147426944,2148012041,2147872338,2147605906,2147105472,2148220361,2147205558,1350,3,13,55751
1381961418,5807,308.0700073242187500,11.3866996765136720,34.1661987304687500,195.9019927978515600,448.4273071289062500,11.3860502243042000,36.2215995788574200,47,106,86,80,69,15246,2147730349,2147430573,2148020690,2147873270,2147605632,2147107099,2148228918,2147206518,691,3,13,65405
1381961549,5806,297.7999877929687500,12.1562995910644530,34.2019996643066400,201.9299011230468800,424.3729858398437500,12.1338701248168950,35.4617004394531250,49,107,82,80,68,15245,2147729362,2147429522,2148023789,2147875072,2147600548,2147112438,2148226093,2147209709,2906,3,13,12218
1381961694,5809,286.7200012207031000,12.5656003952026370,34.2216987609863300,204.6112976074218800,409.3995971679687500,12.5979003906250000,35.0636482238769500,49,102,86,80,67,15249,2147724672,2147434971,2148033206,2147875684,2147595885,2147119076,2148226496,2147207570,2812,3,13,39299
1381961836,5809,275.8999938964844000,13.4409999847412110,34.2784996032714840,206.5997009277343800,384.5823974609375000,13.3647298812866210,34.5595893859863300,49,105,86,78,66,15246,2147725001,2147439652,2148051145,2147874806,2147593042,2147124352,2148231186,2147208932,1016,3,13,54344
1381961986,5809,263.5400085449219000,14.2757997512817380,34.3515014648437500,210.6772003173828000,354.9284057617187500,14.2778301239013670,33.8722305297851560,49,103,88,79,66,15244,2147721984,2147445714,2148073444,2147872640,2147592740,2147135579,2148240320,2147210194,2734,3,13,62234
1381962106,5808,252.1100006103515600,14.8123998641967770,34.4137001037597660,212.6204071044922000,335.7385864257812500,14.8671703338623050,33.4757499694824200,49,103,84,79,66,15244,2147721874,2147461915,2148105938,2147875547,2147587739,2147149202,2148246857,2147212397,1853,3,13,56644
1381962228,5805,241.5000000000000000,15.5637998580932620,34.4938011169433600,213.4537963867187500,313.3178100585937500,15.5544700622558600,33.0990905761718750,49,103,87,79,64,15240,2147720731,2147482386,2148144932,2147871917,2147586669,2147165202,2148263570,2147212516,2928,3,14,62554
1381962370,5808,230.4299926757812500,16.2290000915527340,34.5786018371582000,215.8520965576172000,291.7073974609375000,16.2158908843994140,32.6543693542480500,49,104,87,79,65,15234,2147724845,2147506057,2148212516,2147874934,2147583725,2147183158,2148294893,2147219227,858,3,14,32723
1381962512,5808,219.3600006103515600,16.8019008636474600,34.6506996154785160,216.1853027343750000,272.2708129882812500,16.8101406097412100,32.3588409423828100,49,107,86,79,64,15237,2147726116,2147533440,2148244918,2147869933,2147582208,2147205723,2148304557,2147220662,1228,3,14,2635
1381962661,5811,206.4700012207031200,17.7212009429931640,34.7607994079589840,216.0919952392578000,240.7183990478515600,17.7740192413330080,31.9206504821777340,50,103,87,79,63,15232,2147735936,2147584347,2148351853,2147873993,2147582884,2147240557,2148356553,2147224393,3064,3,15,43904
1381962759,5808,197.0399932861328000,18.5601005554199220,34.8815994262695300,218.5751037597656200,214.9095001220703000,18.5621795654296880,31.4321498870849600,53,106,86,80,63,15225,2147762633,2147721554,2148629348,2147874724,2147589979,2147323364,2148483456,2147233929,2531,3,14,8277
1381962813,5808,191.9499969482422000,18.9570999145507800,34.9383010864257800,218.6782073974609400,201.4266052246093800,18.9740009307861330,31.2427406311035160,54,108,86,80,63,15219,2147779794,2147780909,2148738084,2147876041,2147593161,2147363611,2148539958,2147235657,2536,2,14,54434
1381962892,5809,185.3699951171875000,19.4414997100830080,35.0122985839843750,218.4362030029297000,187.0523071289062500,19.4131908416748050,31.0609302520751950,58,110,85,80,63,15218,2147806884,2147878454,2148908461,2147874980,2147604461,2147432932,2148618340,2147244160,1950,3,14,15658
1381962946,5810,181.5399932861328000,19.7318992614746100,35.0600013732910160,218.2384948730468800,176.1123046875000000,19.7476005554199220,30.9238700866699220,59,111,90,80,62,15216,2147829403,2147940681,2149026852,2147877769,2147611885,2147472850,2148676297,2147250294,2785,2,14,60240
1381963000,5811,177.8699951171875000,19.9983997344970700,35.1085014343261700,221.3381042480468800,168.1020965576172000,19.9925594329834000,30.6564292907714840,59,111,87,78,62,15214,2147835218,2147921051,2148943716,2147876992,2147611913,2147449600,2148608576,2147246208,3012,2,15,17947
1381963054,5805,174.2599945068359400,20.1229991912841800,35.1296997070312500,222.8511962890625000,163.1342010498047000,20.1445293426513670,30.5134201049804700,60,113,88,81,61,15211,2147791780,2147740827,2148565586,2147874806,2147597220,2147372114,2148468955,2147230592,3394,2,14,60250
1381963119,5807,169.8000030517578000,20.4136009216308600,35.1743011474609400,224.0751037597656200,154.9691925048828000,20.3943901062011720,30.3433799743652340,61,111,85,81,63,15211,2147931666,2148194121,2149448466,2147879405,2147656612,2147643190,2148886939,2147266541,3583,2,15,63439
1381963203,5811,164.4799957275390600,20.6291007995605470,35.2099990844726560,225.3197937011718800,147.2053985595703000,20.6320896148681640,30.1788291931152340,65,114,86,82,61,15203,2147798189,2147697782,2148426331,2147878089,2147598802,2147344448,2148384996,2147232402,1147,1,15,21465
1381963279,5811,159.8600006103515600,20.7045001983642580,35.2174987792968750,225.9071044921875000,144.8526000976562500,20.7041492462158200,30.1190109252929700,70,112,89,81,60,15200,2147775972,2147621577,2148274642,2147870016,2147590592,2147304164,2148298020,2147224274,896,2,15,32239
1381963344,5808,155.6900024414062500,20.8414001464843750,35.2364006042480500,226.0124053955078000,140.7088012695312500,20.8310909271240230,30.0592002868652340,70,115,88,80,60,15195,2147794459,2147657746,2148322294,2147872649,2147598866,2147322678,2148324187,2147228397,400,2,15,58219
1381963398,5809,152.3800048828125000,20.9283008575439450,35.2416000366210940,226.0915069580078000,137.8282012939453000,20.9193592071533200,30.0178108215332030,74,114,86,81,61,15201,2147828882,2147721636,2148423030,2147877065,2147615945,2147367478,2148374336,2147228891,3112,2,15,60444
1381963504,5806,147.0299987792968800,21.1030998229980470,35.2526016235351560,225.6676025390625000,132.2747039794922000,21.0895900726318360,29.9659595489501950,87,115,88,81,61,15183,2147875849,2147812416,2148553618,2147875401,2147634166,2147419163,2148435510,2147235995,2283,2,15,54647
1381963646,5805,143.3399963378906200,21.1439990997314450,35.2504997253418000,225.7787017822265600,130.8135070800781200,21.1343898773193360,29.9414405822753900,93,117,89,81,60,15185,2147908013,2147875510,2148655268,2147875858,2147649444,2147451904,2148479076,2147237750,881,2,15,38162
1381963824,5807,138.8000030517578000,21.2082004547119140,35.2514991760253900,225.8079986572265600,128.5341033935547000,21.2042903900146500,29.9105091094970700,90,116,87,83,60,15175,2147970587,2147991734,2148841737,2147878052,2147673051,2147507483,2148557952,2147246125,838,2,15,52765
1381963922,5807,134.8300018310547000,21.3043994903564450,35.2512016296386700,225.3999023437500000,125.5550994873046900,21.2956695556640620,29.8917102813720700,102,119,86,82,62,15171,2148082240,2148199990,2149155227,2147880201,2147718308,2147617627,2148690715,2147256941,3333,1,15,39676
1381964020,5808,130.8999938964843800,21.4281997680664060,35.2789001464843750,225.7476043701172000,120.8888015747070300,21.4388408660888670,29.8140602111816400,101,117,85,82,62,15169,2148188416,2148372562,2149402313,2147883940,2147764077,2147707584,2148792740,2147262646,2671,1,15,46914
1381964115,5808,126.6500015258789000,21.4958992004394530,35.2650985717773440,227.1732025146484400,119.1993026733398400,21.4906997680664060,29.7218494415283200,108,121,87,81,60,15156,2148352137,2148624283,2149731538,2147887451,2147826816,2147817197,2148916745,2147279552,1589,1,15,65455
1381964191,5809,122.7200012207031200,21.6089992523193360,35.2743988037109400,227.0758972167968800,115.9738006591796900,21.5897197723388670,29.6850891113281250,108,120,88,82,61,15149,2148479753,2148772726,2149884672,2147891885,2147869796,2147875190,2148968512,2147279076,1036,2,15,35777
1381964256,5807,119.6699981689453100,21.8694000244140620,35.2803993225097660,227.8061065673828000,106.6831970214843800,21.8750991821289060,29.5294609069824220,118,119,85,82,60,15136,2148568841,2148864228,2149959844,2147895314,2147896813,2147901814,2148983497,2147285074,414,1,15,4516
1381964354,5805,116.2399978637695300,22.2761993408203120,35.3292007446289060,232.7693023681640600,94.4283065795898400,22.2519607543945300,29.1345195770263670,131,122,88,81,59,15133,2148570395,2148786477,2149775826,2147893696,2147894208,2147840265,2148887021,2147273965,2321,2,15,56800
1381964510,5809,112.1699981689453100,22.4393005371093750,35.3228988647460940,237.3899993896484400,88.6575469970703100,22.4295997619628900,28.8455200195312500,143,122,88,82,60,15111,2148619072,2148779154,2149652882,2147890432,2147905764,2147809984,2148822025,2147272886,174,2,15,23264
1381964685,5809,108.3600006103515600,22.6275997161865230,35.3375015258789060,240.3910980224609400,82.5851898193359400,22.6166496276855470,28.6320304870605470,121,119,88,82,59,15126,2148768338,2148903488,2149664521,2147893312,2147961161,2147846244,2148817133,2147278107,2615,1,15,3803
1381964824,5817,103.7200012207031200,22.9666996002197270,35.3471984863281250,242.4461975097656200,74.1177368164062500,22.8777198791503900,28.4330291748046880,93,120,89,83,59,15135,2149112621,2149233883,2149899657,2147897536,2148109266,2148019035,2148941568,2147291894,1802,2,15,22490
1381964933,5808,99.8899993896484400,23.1478004455566400,35.3510017395019500,244.7035980224609400,66.0828399658203100,23.1257095336914060,28.2321605682373050,87,120,89,82,58,15116,2149576018,2149737161,2150335478,2147906002,2148329088,2148289755,2149155849,2147312045,2664,1,16,51277
1381964987,5808,98.0599975585937500,23.1558990478515620,35.3521995544433600,246.0395965576172000,65.3440628051757800,23.1485290527343750,28.1643104553222660,92,121,87,84,58,15133,2149828973,2149985810,2150530971,2147911204,2148449590,2148426358,2149252525,2147323117,2374,1,15,6371
1381965071,5808,94.6900024414062500,23.2982997894287100,35.3490982055664060,246.9790039062500000,60.7448310852050800,23.2906208038330080,28.0659503936767580,88,120,91,84,60,15122,2150447341,2150612882,2151042002,2147923949,2148757339,2148783232,2149516370,2147348141,1594,1,16,32911
1381965125,5806,92.1500015258789000,23.4062004089355470,35.3479995727539060,247.4851989746093800,56.6713714599609400,23.4165401458740230,27.9932804107666000,79,124,90,83,58,15117,2150954368,2151100873,2151433115,2147932937,2149011986,2149058212,2149726070,2147371264,1211,1,15,47855
1381965179,5808,89.7900009155273400,23.6334991455078120,35.3418006896972660,247.7220001220703000,50.1005592346191400,23.6198196411132800,27.9015197753906250,81,121,92,84,57,15117,2151484105,2151600283,2151829924,2147943716,2149282797,2149366089,2149943067,2147393334,506,1,15,21213
1381965233,5809,87.9300003051757800,23.7896003723144530,35.3412017822265600,248.7669982910156200,45.3601989746093750,23.7665901184082030,27.7980709075927730,80,124,91,85,58,15108,2152022610,2152110262,2152246710,2147958153,2149572233,2149677906,2150173686,2147412361,3238,2,16,12866
1381965298,5804,86.1600036621093800,23.8822994232177730,35.3409996032714840,250.2933959960937500,42.3335494995117200,23.8603591918945300,27.6951904296875000,78,125,91,86,58,15113,2152784950,2152878281,2152914852,2147980480,2149977243,2150146102,2150524160,2147446793,2666,1,16,64597
1381965382,5808,83.3799972534179700,23.9109001159667970,35.3427009582519500,251.1632995605468800,40.5980110168457000,23.9141502380371100,27.6367893218994140,75,124,91,85,58,15109,2154576548,2154692525,2154541558,2148035410,2150933531,2151227675,2151365412,2147533458,3084,1,16,6709
1381965436,5818,80.8600006103515600,24.0925006866455080,35.3404998779296900,251.1551055908203000,35.0293693542480500,24.0868301391601560,27.5686607360839840,74,126,89,85,57,15103,2156157193,2156254418,2155900032,2148089828,2151818889,2152202294,2152090852,2147606326,2699,1,16,62513
1381965490,5804,78.5100021362304700,24.2099990844726560,35.3403015136718750,251.8439025878906200,31.6392307281494140,24.1920394897460940,27.4980392456054700,76,124,91,84,57,15101,2157901257,2157956708,2157385782,2148158445,2152833389,2153300233,2152917302,2147694125,2729,1,16,35849
1381965544,5806,76.4199981689453100,24.4379997253417970,35.3329010009765600,251.9689025878906200,24.6138591766357420,24.4102401733398440,27.4066600799560550,74,129,92,85,58,15070,2159356105,2159300589,2158497170,2148219858,2153712960,2154191680,2153540534,2147755730,2621,1,16,4222
1381965598,5805,74.8600006103515600,24.6098995208740230,35.3345985412597660,252.5509948730468800,19.7312908172607420,24.5620403289794920,27.3226108551025400,73,130,92,86,57,15082,2160831442,2160736091,2159753737,2148291492,2154617280,2155156873,2154245705,2147828013,2490,1,16,61748
1381965682,5807,72.6800003051757800,24.9860992431640620,35.3440017700195300,251.5449066162109400,7.1553831100463870,24.9536304473876950,27.2116909027099600,71,129,91,86,57,15078,2162966793,2162686729,2161336813,2148389668,2156072768,2156593801,2155218349,2147934317,2168,1,16,11035
1381965736,5811,71.0199966430664000,25.1312999725341800,35.3554992675781250,251.6811065673828000,2.4544630050659180,25.1002407073974600,27.1488304138183600,70,128,93,86,57,15075,2163837165,2163322834,2161741065,2148434322,2156803757,2157207478,2155548690,2147970212,1888,1,16,5365
1381965812,5810,69.4700012207031200,25.3104000091552730,35.3610992431640600,251.3627929687500000,-3.1998400688171387,25.2767505645751950,27.0936298370361330,69,128,91,85,57,15078,2163656320,2162725476,2160853531,2148399634,2156966381,2157080493,2155225435,2147938706,1584,1,16,32017
1381965995,5808,67.2699966430664000,25.6049003601074220,35.3731994628906250,250.9423980712890600,-13.1373796463012700,25.5874404907226560,26.9907207489013670,67,130,94,87,57,15069,2166003062,2164578560,2162143616,2148496960,2158957266,2158805293,2156209481,2148043200,177,1,16,15966
1381966071,5808,65.0199966430664000,25.8906002044677730,35.3881988525390600,249.2554016113281200,-22.1100292205810550,25.8684997558593750,26.9531593322753900,67,140,93,86,58,15062,2169066742,2167438354,2164567085,2148674724,2161426596,2161168274,2157787931,2148210093,1179,0,16,8307
1381966147,5809,63.4199981689453100,26.0125999450683600,35.4000015258789060,248.5581054687500000,-26.1091403961181640,25.9939308166503900,26.9343109130859380,67,130,93,88,57,15069,2170691712,2168735341,2165506441,2148762587,2162844736,2162372416,2158476480,2148287817,680,1,16,49252
1381966286,5807,60.5699996948242200,26.1944007873535160,35.4067001342773440,247.3381042480468800,-32.1704101562500000,26.1842403411865230,26.9127998352050780,61,128,92,86,58,15072,2174520448,2171836608,2167873444,2149018614,2166273901,2165300096,2160218441,2148488594,579,1,16,45303
1381966340,5806,58.7200012207031250,26.3985004425048830,35.4136009216308600,246.2086944580078000,-36.5478591918945300,26.3218402862548830,26.9079704284667970,60,127,90,86,57,15080,2177392210,2174375296,2169972763,2149237677,2168974720,2167732909,2161726637,2148658761,1274,1,16,59714
1381966394,5805,57.4399986267089840,26.5839996337890620,35.4170989990234400,244.0661010742187500,-45.0956497192382800,26.5909004211425780,26.8962898254394530,61,130,94,84,57,15056,2180616329,2177393508,2172527917,2149466038,2171815963,2170346496,2163405385,2148841417,1971,1,17,62639
1381966588,5811,55.0400009155273440,26.9941997528076170,35.4416007995605500,240.0670013427734400,-57.5002403259277340,26.9822902679443360,26.9196395874023440,61,126,92,86,56,15077,2186394624,2182216941,2176413147,2149990454,2178028379,2175602560,2166491053,2149191469,2901,1,16,51080
1381966653,5809,53.3100013732910160,27.4479007720947270,35.4341011047363300,237.5028076171875000,-68.8094329833984400,27.3400993347167970,26.8951892852783200,58,128,94,88,56,15073,2193484269,2189091492,2182632137,2150682212,2184778806,2181903789,2170633709,2149671552,2868,2,16,44838
1381966967,5806,51.1599998474121100,27.6699008941650400,35.3171997070312500,231.7760925292968800,-78.9527130126953100,27.6618595123291000,27.0282001495361330,56,121,91,85,55,15084,2235469714,2231282605,2222273435,2154879131,2224953216,2222217536,2198857289,2152822912,225,2,16,3831
1381967043,5806,49.4399986267089840,27.8288993835449220,35.2408981323242200,229.1714019775390600,-83.1721267700195300,27.7959499359130860,27.0955600738525400,57,126,90,84,55,15093,2197994486,2191618898,2183539986,2150964973,2192868763,2187287451,2172759744,2149899456,3538,2,17,29580
1381967225,5807,47.2200012207031250,27.8665008544921880,35.2188987731933600,225.0368041992187500,-85.2358627319336000,27.8615798950195300,27.2619590759277340,54,120,90,83,54,15103,2199873581,2192917229,2184257728,2151202614,2196534857,2189777042,2173837796,2150061741,297,0,16,6909
1381967301,5807,45.3199996948242200,27.8708000183105470,35.2159996032714840,223.7969055175781200,-85.4856567382812500,27.8695297241210940,27.3171901702880860,53,115,91,83,53,15111,2214132434,2207565641,2198322304,2153371885,2211758061,2204014610,2183357065,2151281307,769,1,17,29959
1381967355,5808,43.7799987792968750,27.8721008300781250,35.2146987915039060,223.1842041015625000,-85.5533065795898400,27.8716793060302730,27.3451404571533200,53,116,89,84,55,15112,2214631497,2207550720,2197998592,2153622372,2214819876,2205883520,2183911606,2151387300,793,1,16,28100
1381967409,5808,42.1199989318847660,27.8743000030517580,35.2121009826660160,222.9084014892578000,-85.6559906005859400,27.8749504089355470,27.3568801879882800,53,116,90,82,50,15111,2242593645,2235727277,2224916973,2158038774,2247078674,2236320694,2204122377,2153855396,637,1,16,27933
1381967493,5805,38.9500007629394500,27.8780994415283200,35.2106018066406250,222.7817993164062500,-85.9637069702148400,27.8847408294677730,27.3593006134033200,54,114,87,84,53,15107,2355610450,2355626724,2346885202,2181732306,2371393398,2359238875,2290315200,2165843218,176,0,16,11760
1381967547,5817,36.1599998474121100,27.8754997253417970,35.2108993530273440,222.8139953613281200,-86.0051269531250000,27.8860607147216800,27.3572692871093750,53,116,88,82,52,15112,2366770258,2366976393,2359502080,2189230290,2397736493,2381616374,2303985709,2168571309,3565,1,16,9106
1381967601,5809,33.2999992370605500,27.8763008117675780,35.2106018066406250,222.8271942138672000,-86.0726928710937500,27.8882102966308600,27.3557796478271500,51,114,90,83,53,15110,2389660608,2391768420,2386451382,2201006875,2428985097,2408774656,2320621147,2171549750,3215,1,16,58585
1381967655,5809,30.4200000762939450,27.8766994476318360,35.2104988098144500,222.9004974365234400,-86.1241302490234400,27.8898391723632800,27.3516292572021500,51,114,89,83,54,15113,2408307163,2412632137,2410582528,2215751533,2462931629,2437873316,2338922596,2175640777,3019,1,17,445